www.pogodaiklimat.ru

Погода и климат >> Архив погоды >> Россия >> город Санкт-Петербург >> Кронштадт


ПОГОДА в Кронштадте

  • Прогноз погоды в Кронштадте
  • Монитор погоды в Кронштадте

АРХИВ ПОГОДЫ в Кронштадте

Время (UTC), дата Ветер
(напр.,м/с)
 
Видим.   Явления Облачность Т
(С)
Тd
(С)
f
(%)
Тe
(С)
Тes
(С)
Комфортность P
(гПа)
Po
(гПа)
Тmin
(С)
Tmax
(С)
R
(мм)
R24
(мм)
S
(см)
09 14.01 ЮВ 3 4000 м слаб. ливневой снег 10/8 300 м
[Cb calv Ac trans]
+0.2 -0.9 92 -5 -5 973.4 972.8
12 14.01 ЮВ 3 10 км {ливн. осадки, снег} 10/3 300 м
[Cb calv Ac As]
+0.6 0.0 96 -4 -4 973.8 973.2
15 14.01 В 3 4000 м слаб. снег 10/0
[As trans]
+0.2 +0.2 100 -5 -5 974.0 973.4
18 14.01 В 2 20 км слаб. снег 10/0
[As trans]
+0.2 +0.2 100 -4 -4 974.4 973.8 +0.8 0.9
06 15.01 ЮЗ 4 10 км 10/3 600 м
[Sc Ac As]
-1.8 -3.9 86 -8 -8 981.2 980.6 -2.5 0.8 30
09 15.01 ЮЗ 4 10 км 10/0
[As op]
-2.3 -4.5 85 -8 -8 983.1 982.5
12 15.01 ЮЗ 5 10 км {снег} 10/0
[As op]
-2.4 -4.6 85 -9 -9 983.8 983.2
15 15.01 ЮЗ 4 10 км 10/0
[As op]
-2.4 -4.0 89 -8 -8 984.6 984.0
18 15.01 ЮЗ 5 10 км 10/0
[As op]
-3.0 -3.7 95 -10 -10 984.8 984.2 -1.6 0.0
06 16.01 З 4 2000 м слаб. снег 10/0
[As op]
-3.6 -4.4 94 -10 -10 988.3 987.7 -4.6 0.8 31
09 16.01 З 3 4000 м слаб. снег 10/0
[As op]
-5.6 -7.4 87 -11 -11 990.5 989.9
12 16.01 СЗ 3 10 км в посл. час ливневой снег 10/6 300 м
[Cb calv Ac trans]
-4.9 -6.6 88 -10 -10 991.9 991.3
15 16.01 СЗ 1 4000 м слаб. снег 10/8 300 м
[Sc Ac As]
-4.4 -7.1 81 -7 -7 993.3 992.7
18 16.01 СЗ 1 4000 м слаб. снег 10/0 300 м
[As op]
-2.9 -4.9 86 -5 -5 993.7 993.1 -2.6 0.3
06 17.01 ЮВ 4 2000 м снег 10/10 300 м
[Frnb Ns]
-5.0 -5.6 96 -12 -12 983.9 983.3 -5.9 3 34
09 17.01 В 4 2000 м снег 10/10 300 м
[Frnb Ns]
-4.4 -5.0 96 -11 -11 980.4 979.8
12 17.01 В 2 500 м сильн. снег 10/10 200 м
[Frnb Ns]
-1.2 -1.2 100 -5 -5 977.4 976.8
15 17.01 ЮЗ 2 2000 м снег 10/0 200 м
[As op]
0.0 0.0 100 -4 -4 976.4 975.8
18 17.01 З 3 10 км в посл. час снег 10/5 300 м
[Frnb Ac As]
-3.0 -3.7 95 -8 -8 978.8 978.2 +0.5 12
06 18.01 СЗ 3
{13}
2000 м ливневой снег 10/10 200 м
[Cb calv]
-7.9 -9.3 90 -14 -14 992.2 991.6 -7.9 0.5 47
09 18.01 З 1 4000 м слаб. ливневой снег 8/5 300 м
[Cb calv Ac trans]
-7.6 -10.2 82 -10 -10 994.2 993.6
12 18.01 штиль 0 4000 м слаб. ливневой снег 10/6 300 м
[Cb calv Ac trans]
-7.3 -9.4 85 -8 -8 995.5 994.9
15 18.01 З 1 20 км слаб. ливневой снег 8/6 300 м
[Cb calv Ac trans]
-10.3 -11.6 90 -13 -13 996.8 996.2
18 18.01 СЗ 1 20 км слаб. ливневой снег 4/4 300 м
[Cb calv]
-10.5 -11.8 90 -13 -13 997.5 996.9 -7.2 2
06 19.01 З 1 10 км 4/4 300 м
[Sc]
-12.4 -13.0 95 -15 -15 1003.4 1002.8 -17.8 0.0 53
09 19.01 Ю 1 10 км 8/8 300 м
[Sc]
-10.9 -11.5 95 -13 -13 1005.0 1004.4
12 19.01 ЮВ 1 4000 м слаб. снег 10/6 300 м
[Sc Ac As]
-9.3 -1.0 100 -12 -12 1004.7 1004.1
15 19.01 ЮЗ 1 10 км в посл. час снег 3/0
[Ac trans]
-5.9 -6.3 97 -8 -8 1004.4 1003.8
18 19.01 Ю 2 10 км {снег} 10/6 300 м
[Sc Ac As]
-5.8 -6.2 97 -10 -10 1003.8 1003.2 -5.4 0.6
06 20.01 Ю 3 4000 м слаб. ливневой снег 10/8 300 м
[Cb calv]
-3.5 -4.0 96 -9 -9 995.9 995.3 -7.2 2 53
09 20.01 З 1 10 км в посл. час ливневой снег 10/4 300 м
[Cb calv Ac As]
-4.4 -5.0 96 -7 -7 997.1 996.5
12 20.01 СЗ 4
{10}
4000 м слаб. ливневой снег 10/6 300 м
[Cb calv Ac As]
-8.3 -10.2 86 -15 -15 1001.6 1001.0
15 20.01 С 2 10 км {ливн. осадки} 4/4 300 м
[Cb calv]
-12.3 -14.3 85 -17 -17 1004.4 1003.8
18 20.01 СЗ 3 20 км {ливн. осадки} 10/0
[As trans]
-13.1 -15.8 80 -19 -19 1005.3 1004.7 -3.3 2
06 21.01 СЗ 3 4000 м дымка 8/0
[Ac trans Ci fib]
-17.9 -20.5 80 -25 -25 1009.9 1009.2 -18.3 0.6 52

 

Местоположение метеостанции Кронштадт (город Санкт-Петербург, Россия): широта 59.98 долгота 29.76 высота над уровнем моря 5 м.

В архиве по умолчанию представлена погода в Кронштадте за последнюю неделю. Архивные данные за месяц целиком и за предыдущие месяцы, начиная с января 2011 года, Вы можете получить, выбрав интересующий диапазон дат из раскрывающегося списка и нажав кнопку "Ввод!".


*Определитесь, кто Вы:
робот инопланетянин человек

Внимание! Время в таблицах - всемирное. Для получения местного времени необходимо прибавить поправку, которая равна 3 ч.

Смотрите также архив погоды в соседних городах и на ближайших метеорологических станциях:

Погода в Ломоносове (город Санкт-Петербург, Россия) (7 км)
Погода в Лисьем Носу (город Санкт-Петербург, Россия) (13 км)
Погода в Санкт-Петербурге (город Санкт-Петербург, Россия) (30 км)
Погода в Шепелево (Ленинградская область, Россия) (30 км)
Погода в Рощино (Ленинградская область, Россия) (31 км)
Погода в Сосновом Бору (Ленинградская область, Россия) (37 км)
Погода в Озерках (Ленинградская область, Россия) (49 км)
Погода в Воейково (город Санкт-Петербург, Россия) (52 км)
Погода в Волосово (Ленинградская область, Россия) (63 км)
Погода в Шлиссельбурге (Ленинградская область, Россия) (69 км)

Пояснения к столбцам:

Ветер - указаны скорость ветра в м/с - средняя за 10 мин, порывы в срок и между сроками (в фигурных скобках) и направление, откуда дует ветер: С - северный, СВ - северо-восточный, В - восточный, ЮВ - юго-восточный, Ю - южный, ЮЗ - юго-западный, З - западный, СЗ - северо-западный.
Видимость - горизонтальная дальность видимости в метрах или километрах. При видимости от 1 до 10 км при отсутствии осадков обычно наблюдается дымка, при ухудшении видимости до 1 км и менее - туман. В сухую погоду видимость может ухудшаться дымом, пылью или мглою.
Явления - указаны атмосферные явления, наблюдавшиеся в срок или в последний час перед сроком; фигурными скобками обозначены явления, наблюдавшиеся между сроками (за 1-3 часа до срока); квадратными скобками обозначены град или гололедные отложения с указанием их диаметра в мм.
Облачность - указаны через наклонную черту общая и нижняя облачность в баллах и высота нижней границы облаков в метрах; квадратными скобками обозначены формы облаков: Ci - перистые, Cs - перисто-слоистые, Cc - перисто-кучевые, Ac - высококучевые, As - высокослоистые, Sc - слоисто-кучевые, Ns - слоисто-дождевые, Cu - кучевые, Cb - кучево-дождевые. Подробнее классификацию облаков см. в Атласе облаков (PDF).
T - Температура воздуха - температура, измеренная на высоте 2 м над землей.
Td - Температура точки росы - температура, при понижении до которой содержащийся в воздухе водяной пар достигнет насыщения.
f - Относительная влажность воздуха - влажноcть воздуха, измеренная на высоте 2 м над землей.
Te - Эффективная температура - температура, которую ощущает одетый по сезону человек в тени. Характеристика душности погоды. При расчете учитывается влияние влажности воздуха и скорости ветра на теплоощущения человека.
Tes - Эффективная температура на солнце - температура, которую ощущает человек, с поправкой на солнечный нагрев. Характеристика знойности погоды. Зависит от высоты солнца над горизонтом, облачности и скорости ветра. Ночью, в пасмурную погоду, а также при ветре 12 м/с и более поправка равна нулю.
P - Атмосферное давление - приведенное к уровню моря атмосферное давление.
Po - Атмосферное давление - измеренное на уровне метеостанции атмосферное давление.
Tmin - Минимальная температура - минимум температуры воздуха на высоте 2 м над землей.
Tmax - Максимальная температура - максимум температуры воздуха на высоте 2 м над землей.
R - Количество осадков - Количество выпавших осадков за период времени, мм. При наведении курсора мыши на число - период времени, за который выпало указанное количество осадков.
R24 - Количество осадков - Количество выпавших осадков за 24 часа, мм.
S - Снежный покров - Высота снежного покрова, см. При наведении курсора мыши на число - состояние снежного покрова и степень покрытия местности в баллах.